Location: Lavardac
(44.1778°N, 0.2983°E)
Time: 23:32:12
(UTC+00:00)

Daily predictions for brighter satellites

Satellite Brightness Start Highest point End
(mag) Time Altitude Azimuth Time Altitude Azimuth Time Altitude Azimuth
ATLAS 2AS CENTAUR R/B 3.8 20:06:13 10° SSE 20:12:40 28° ESE 20:19:11 10° NE
SL-4 R/B 2.4 20:08:19 10° SW 20:12:52 61° SE 20:17:38 10° ENE
Cosmos 1833 Rocket 4.4 20:08:15 10° NW 20:13:05 30° WSW 20:17:55 10° SSW
STARLINK-1073 3.8 20:09:33 10° WNW 20:13:41 70° SW 20:17:48 10° SE
NOSS 3-2 (A) 4.4 20:06:35 10° NNW 20:13:59 61° NE 20:22:18 10° SE
deb Kosmos-1763 4.1 20:13:59 10° NNW 20:17:35 83° WSW 20:21:11 10° SSE
Lacrosse 5 4.0 20:15:09 10° WNW 20:18:37 19° WSW 20:22:05 10° SSW
STARLINK-1121 3.8 20:14:32 10° WNW 20:18:38 65° SW 20:22:44 10° SE
USA 186 4.3 20:17:11 10° SW 20:19:10 18° W 20:21:17 10° NW
STARLINK-29 3.2 20:19:02 10° SSW 20:22:08 44° SE 20:25:14 10° ENE
Cosmos 1437 Rocket 2.9 20:19:00 10° SSW 20:22:47 77° W 20:26:40 10° N
STARLINK-1106 3.9 20:19:31 10° WNW 20:23:36 59° SW 20:27:40 10° SE
Okean 1 Rocket 3.3 20:21:42 10° N 20:26:05 54° E 20:30:22 10° SSE
Cosmos 1900 4.4 20:22:34 10° NNW 20:27:39 79° ENE 20:32:45 10° SE
STARLINK-1112 4.0 20:24:32 10° WNW 20:28:35 54° SW 20:32:33 10° SE
Intercosmos 24 4.3 20:25:07 10° NNW 20:28:42 63° W 20:33:06 10° S
USA 238 DEB 4.0 20:21:54 10° NW 20:29:07 69° NE 20:36:27 10° SE
CZ-2C R/B 4.2 20:24:39 10° N 20:29:10 67° WNW 20:33:44 10° SSW
USA 238 4.0 20:22:00 10° NW 20:29:13 69° NE 20:36:34 10° SE
Cosmos 2297 4.1 20:23:49 10° SSW 20:29:29 71° WNW 20:35:14 10° NNE
STARLINK-1209 4.2 20:26:56 10° NW 20:30:18 40° NNE 20:33:39 10° E
Cosmos 2082 Rocket 3.6 20:25:47 10° NW 20:30:57 36° WSW 20:36:04 10° S
ATLAS CENTAUR R/B 2.8 20:29:42 10° SSE 20:32:52 19° ESE 20:35:56 10° ENE
IGS 5A 4.3 20:29:40 10° SE 20:33:25 35° ENE 20:37:12 10° N
STARLINK-1128 4.2 20:29:31 10° WNW 20:33:32 49° SW 20:37:19 11° SSE
MetOp-B 4.3 20:28:47 10° SSE 20:34:01 60° ENE 20:39:17 10° N
Okean 2 4.5 20:31:01 10° SSE 20:34:33 28° E 20:38:08 10° NNE
Cosmos 2369 Rocket 2.5 20:30:20 10° S 20:35:40 44° ESE 20:41:00 10° NE
STARLINK-1320 4.4 20:35:51 10° S 20:37:59 17° SE 20:40:07 10° E
STARLINK-1322 4.4 20:36:11 10° S 20:38:19 17° SE 20:40:28 10° E
STARLINK-1113 4.3 20:34:32 10° WNW 20:38:31 45° SW 20:42:07 12° SSE
STARLINK-1324 4.4 20:36:29 10° S 20:38:38 17° SE 20:40:47 10° E
STARLINK-1294 4.4 20:36:49 10° S 20:38:56 17° SE 20:41:06 10° E
STARLINK-1261 4.4 20:37:09 10° S 20:39:19 18° SE 20:41:30 10° E
STARLINK-1325 4.4 20:37:29 10° S 20:39:40 18° SE 20:41:51 10° E
STARLINK-1333 4.3 20:37:51 10° S 20:40:02 18° SE 20:42:14 10° E
STARLINK-1334 4.3 20:38:07 10° S 20:40:19 18° SE 20:42:31 10° E
STARLINK-1187 4.2 20:37:20 10° NW 20:40:31 38° NNE 20:43:39 10° E
STARLINK-1326 4.3 20:38:26 10° S 20:40:39 18° SE 20:42:52 10° E
STARLINK-1323 4.3 20:38:47 10° S 20:41:01 18° SE 20:43:15 10° E
STARLINK-1349 4.3 20:39:04 10° S 20:41:19 18° SE 20:43:33 10° E
STARLINK-1336 4.3 20:39:23 10° S 20:41:38 18° SE 20:43:53 10° E
STARLINK-1331 4.3 20:39:45 10° S 20:42:01 19° SE 20:44:17 10° E
STARLINK-1344 4.3 20:40:03 10° S 20:42:19 19° SE 20:44:36 10° E
STARLINK-1343 4.3 20:40:25 10° S 20:42:41 19° SE 20:44:58 10° E
STARLINK-1346 4.3 20:40:41 10° S 20:42:59 19° SE 20:45:17 10° E
Cosmos 1766 3.8 20:39:17 10° N 20:43:07 43° ENE 20:46:21 14° SSE
STARLINK-1328 4.3 20:41:06 10° S 20:43:24 19° SE 20:45:42 10° E
STARLINK-1119 4.4 20:39:32 10° WNW 20:43:27 41° SW 20:46:53 13° SSE
STARLINK-1354 4.2 20:41:23 10° S 20:43:41 19° SE 20:46:00 10° E
STARLINK-1347 4.2 20:41:40 10° S 20:43:59 19° SE 20:46:18 10° E
STARLINK-1357 4.2 20:42:04 10° S 20:44:24 19° SE 20:46:44 10° E
STARLINK-1234 4.0 20:40:57 10° NW 20:44:27 47° NNE 20:47:47 11° ESE
STARLINK-1335 4.2 20:42:21 10° S 20:44:41 20° SE 20:47:02 10° E
STARLINK-1327 4.2 20:42:42 10° S 20:45:02 20° SE 20:47:23 10° E
STARLINK-1340 4.2 20:42:58 10° S 20:45:20 20° SE 20:47:42 10° E
STARLINK-1356 4.2 20:43:21 10° S 20:45:43 20° SE 20:48:05 10° E
STARLINK-1345 4.2 20:43:39 10° S 20:46:02 20° SE 20:48:24 10° E
STARLINK-1355 4.2 20:43:59 10° S 20:46:23 20° SE 20:48:46 10° E
STARLINK-1321 4.2 20:44:19 10° S 20:46:43 20° SE 20:49:07 10° E
STARLINK-1358 4.2 20:44:41 10° S 20:47:06 21° SE 20:49:31 10° E
STARLINK-1332 4.1 20:44:58 10° S 20:47:22 21° SE 20:49:48 10° E
STARLINK-1348 4.1 20:45:18 10° S 20:47:43 21° SE 20:50:08 10° E
STARLINK-1330 4.1 20:45:37 10° S 20:48:02 21° SE 20:50:30 10° E
STARLINK-1363 4.1 20:45:56 10° S 20:48:22 21° SE 20:50:49 10° E
STARLINK-1337 4.1 20:46:18 10° S 20:48:44 21° SE 20:51:12 10° E
Nadezhda 4 Rocket 3.9 20:42:50 10° S 20:48:58 81° E 20:55:06 10° N
STARLINK-1342 4.1 20:46:37 10° S 20:49:04 21° SE 20:51:32 10° E
STARLINK-1364 4.1 20:46:56 10° S 20:49:25 22° SE 20:51:53 10° E
STARLINK-1376 4.1 20:47:16 10° S 20:49:44 22° SE 20:52:13 10° E
STARLINK-1228 3.9 20:46:10 10° NW 20:49:46 52° NNE 20:53:00 12° ESE
STARLINK-1360 4.1 20:47:36 10° S 20:50:04 22° SE 20:52:34 10° E
STARLINK-1361 4.1 20:47:56 10° S 20:50:25 22° SE 20:52:55 10° E
STARLINK-1367 4.1 20:48:12 10° S 20:50:41 22° SE 20:53:13 10° E
STARLINK-1366 4.0 20:48:34 10° S 20:51:04 22° SE 20:53:35 10° E
Resurs 01 Rocket 2.3 20:48:53 10° S 20:53:15 55° W 20:57:38 10° NNW
USA 245 2.4 20:52:38 19° SE 20:54:13 51° ENE 20:56:30 10° N
STARLINK-52 2.8 20:54:14 10° SW 20:57:26 85° SE 21:00:39 10° ENE
STARLINK-1341 4.5 20:58:13 10° S 21:01:34 26° SE 21:04:56 10° ENE
SPOT 5 3.8 20:57:53 15° SE 21:01:51 41° ENE 21:06:51 10° N
Spot 2 Rocket 3.5 20:57:35 13° SSE 21:02:09 85° ENE 21:07:14 10° NNW
Cosmos 1378 3.2 20:58:40 10° S 21:02:22 81° W 21:06:06 10° N
CENTAUR R/B 3.4 20:55:44 10° NW 21:03:47 70° NE 21:11:10 16° SE
BREEZE-M DEB 2.2 21:01:50 10° WSW 21:04:06 85° SSE 21:08:49 10° ENE
STARLINK-1374 4.4 21:02:22 10° SSW 21:05:47 28° SE 21:09:14 10° ENE
Terra 3.0 21:02:43 15° ESE 21:05:50 30° ENE 21:09:58 10° N
STARLINK-1339 4.3 21:06:33 10° SSW 21:10:04 30° SE 21:13:37 10° ENE
ATLAS 3B R/B 3.6 21:05:40 10° NNW 21:12:01 40° NE 21:18:06 12° ESE
Cosmos 1726 4.5 21:11:58 10° NE 21:13:20 12° ENE 21:14:43 10° E
STARLINK-1377 4.1 21:10:46 10° SSW 21:14:21 33° SE 21:17:58 10° ENE
SAR-Lupe-2 3.5 21:11:10 10° NNE 21:14:47 88° W 21:18:12 11° SSW
Cosmos 1805 3.5 21:11:19 10° NNW 21:15:14 66° W 21:18:20 15° S
APEX 4.2 21:11:36 10° SSW 21:18:02 79° ESE 21:23:16 10° NNE
STARLINK-1353 4.0 21:14:58 10° SSW 21:18:38 36° SE 21:22:19 10° ENE
BREEZE-M DEB (TANK) 4.3 20:59:47 10° WSW 21:21:04 82° NNW 21:25:45 10° ENE
Cosmos 1470 3.6 21:17:54 10° N 21:21:29 35° ENE 21:23:07 24° ESE
STARLINK-1375 3.9 21:19:13 10° SSW 21:22:57 38° SE 21:26:41 10° ENE
BREEZE-M DEB (TANK) 4.0 21:13:34 10° SSW 21:23:46 33° SSE 21:27:40 10° E
FALCON 9 DEB 3.0 21:20:33 10° SW 21:23:58 90° WNW 21:27:25 10° NE
Cosmos 1733 3.2 21:21:42 10° NNW 21:25:30 75° W 21:27:51 22° S
Meteor 1-22 Rocket 4.3 21:20:21 10° NNW 21:26:09 79° W 21:30:27 17° S
BREEZE-M DEB (TANK) 4.3 21:22:16 10° WNW 21:26:36 40° N 21:29:58 10° ENE
STARLINK-1350 3.8 21:23:27 10° SSW 21:27:14 42° SE 21:31:02 10° ENE
NOSS 3-2 (C) 4.1 21:19:36 10° NW 21:27:15 85° SW 21:33:29 20° SSE
Cosmos 1174 3.8 21:26:27 31° SSE 21:27:21 39° ESE 21:30:45 10° NE
STARLINK-1235 3.0 21:25:09 10° WNW 21:28:38 85° SW 21:30:07 32° SE
COSMOS 2455 3.1 21:23:33 12° S 21:28:46 46° ESE 21:34:28 10° NE
ATLAS 3B CENTAUR R/B 4.2 21:15:56 10° WSW 21:30:15 33° SSW 21:35:20 20° SSE
Cosmos 1842 3.2 21:28:37 17° S 21:31:31 84° W 21:35:25 10° N
STARLINK-1352 3.7 21:27:45 10° SSW 21:31:33 45° SE 21:35:24 10° ENE
SL-27 R/B 3.0 21:28:18 10° NNW 21:31:47 52° WSW 21:33:33 25° S
Cosmos 1025 Rocket 3.7 21:30:38 26° SE 21:32:15 36° E 21:36:12 10° NNE
SPOT 1/Viking Rocket 3.7 21:30:30 18° S 21:34:20 69° WSW 21:39:29 10° NNW
Cosmos 1975 Rocket 3.3 21:30:50 12° SSW 21:34:52 70° W 21:39:16 10° N
NOSS 3-4 (A) 3.3 21:29:10 10° SSW 21:35:03 76° ESE 21:41:20 10° NE
COSMOS 2487 3.8 21:32:08 10° N 21:35:07 26° ENE 21:36:14 22° E
NOSS 3-4 (C) 3.3 21:29:17 10° SSW 21:35:09 75° ESE 21:41:26 10° NE
STARLINK-1368 3.6 21:32:07 10° SW 21:35:59 49° SE 21:39:52 10° ENE
STARLINK-1212 2.8 21:33:44 10° WNW 21:36:53 85° SW 21:37:48 43° SE
Cosmos 2263 4.2 21:31:31 10° SSW 21:37:07 85° WNW 21:42:47 10° NNE
STARLINK-1105 2.8 21:34:25 10° WNW 21:37:36 84° SSW 21:38:31 43° SE
Cosmos 1486 Rocket 4.1 21:33:22 10° NNW 21:38:39 76° WSW 21:41:50 24° S
STARLINK-1247 2.8 21:35:31 10° WNW 21:38:44 82° SSW 21:39:38 43° SE
STARLINK-1227 2.8 21:36:08 10° WNW 21:39:20 81° SW 21:40:12 45° SE
Cosmos 292 Rocket 4.0 21:34:39 10° SSW 21:39:29 71° WNW 21:44:21 10° NNE
Cosmos 1092 Rocket 4.3 21:33:53 10° SSW 21:39:58 67° W 21:46:08 10° N
STARLINK-1369 3.6 21:36:28 10° SW 21:40:23 54° SE 21:44:19 10° ENE
STARLINK-1226 2.8 21:37:18 10° WNW 21:40:29 79° SW 21:41:19 46° SE
Cosmos 1354 Rocket 4.3 21:35:30 10° NNW 21:40:45 58° ENE 21:43:37 26° SE
STARLINK-1215 2.8 21:38:22 10° WNW 21:41:35 77° SW 21:42:23 46° SE
ATLAS 5 CENTAUR R/B 2.4 21:35:30 10° SSW 21:42:26 42° SE 21:45:10 10° ENE
RESURS DK-1 3.6 21:42:40 24° ESE 21:42:40 24° ESE 21:45:58 10° NE
MTI 4.3 21:40:31 10° NNE 21:43:28 38° E 21:43:38 38° ESE
STARLINK-1217 2.8 21:40:39 10° WNW 21:43:52 73° SW 21:44:35 49° SSE
Cosmos 1943 Rocket 3.5 21:38:48 10° SW 21:44:01 40° WNW 21:49:18 10° NNE
Cosmos 1271 Rocket 2.7 21:42:54 32° S 21:44:35 66° E 21:48:32 10° NNE
STARLINK-1372 3.5 21:40:48 10° SW 21:44:44 58° SE 21:48:41 10° ENE
STARLINK-1229 2.9 21:41:46 10° WNW 21:44:58 72° SW 21:45:38 50° SSE
Cosmos 2297 Rocket 4.5 21:43:06 10° N 21:46:00 14° NE 21:48:52 10° ENE
STARLINK-1270 2.9 21:42:50 10° WNW 21:46:01 70° SW 21:46:39 51° SSE
Cosmos 1953 3.4 21:42:41 10° NNE 21:46:14 30° ENE 21:47:21 26° ESE
Cosmos 1992 Rocket 3.9 21:42:02 14° SSW 21:46:28 81° ESE 21:51:42 10° NNE
STARLINK-1210 4.5 21:43:45 10° NW 21:47:46 46° NNE 21:50:30 19° E
STARLINK-1189 2.9 21:45:16 10° WNW 21:48:29 66° SW 21:49:02 52° SSE
STARLINK-1378 3.4 21:45:12 10° SW 21:49:09 63° SE 21:53:09 10° ENE
STARLINK-1188 2.9 21:46:30 10° WNW 21:49:41 65° SW 21:50:12 53° SSE
STARLINK-1191 3.0 21:49:07 10° WNW 21:52:17 61° SW 21:52:41 54° S
STARLINK-1219 4.3 21:48:45 10° NW 21:52:48 49° NNE 21:55:18 21° E
SL-4 R/B 3.6 21:48:14 10° W 21:52:48 45° NNW 21:57:29 10° NE
STARLINK-1221 3.0 21:50:19 10° WNW 21:53:29 59° SW 21:53:50 54° S
STARLINK-1379 3.4 21:49:38 10° SW 21:53:37 69° SE 21:57:38 10° ENE
Cosmos 1242 Rocket 3.0 21:52:26 22° SSW 21:54:38 58° WNW 21:58:17 10° N
STARLINK-1222 3.0 21:51:33 10° WNW 21:54:43 57° SW 21:55:02 54° S
STARLINK-1214 3.0 21:52:47 10° WNW 21:55:57 56° SW 21:56:14 53° SSW
Cosmos 1833 4.2 21:50:18 10° NNW 21:55:58 83° WSW 21:58:53 30° SSE
Cosmos 1707 2.7 21:55:20 40° SSE 21:56:32 64° E 22:00:23 10° NNE
STARLINK-1329 3.4 21:53:21 10° SW 21:57:22 73° SE 22:01:23 10° ENE
STARLINK-1211 4.2 21:53:43 10° NW 21:57:47 53° NNE 22:00:05 24° E
STARLINK-1362 3.4 21:57:49 10° SW 22:01:52 79° SE 22:05:54 10° ENE
ERS-1 Rocket 3.5 21:59:08 23° SSW 22:02:07 52° W 22:07:03 10° NNW
STARLINK-1245 4.1 21:58:40 10° NW 22:02:46 56° NNE 22:04:50 26° E
Cosmos 1656 Rocket 3.8 21:57:24 10° SSW 22:03:00 75° WNW 22:08:36 10° NNE
ATLAS 2AS CENTAUR R/B 3.2 21:55:05 10° SW 22:03:04 76° NW 22:11:03 10° NE
Cosmos 1455 Rocket 3.8 22:00:11 10° NNW 22:04:19 45° W 22:06:35 24° SSW
Cosmos 1758 3.3 22:01:17 10° N 22:05:23 80° W 22:06:46 40° S
STARLINK-1373 3.4 22:02:20 10° SW 22:06:23 85° SE 22:10:26 10° ENE
STARLINK-1209 4.1 22:04:15 10° WNW 22:07:28 34° SW 22:07:33 34° SW
STARLINK-1233 4.0 22:03:39 10° NW 22:07:46 60° NNE 22:09:38 30° E
STARLINK-1390 3.4 22:06:53 10° SW 22:10:55 90° NW 22:14:59 10° NE
ATLAS CENTAUR R/B 2.3 22:07:14 10° SW 22:11:31 50° NW 22:15:32 10° NNE
BREEZE-M R/B 4.5 22:00:40 10° SW 22:12:15 55° SSE 22:17:32 10° ENE
STARLINK-1204 3.9 22:08:37 10° NW 22:12:45 65° NNE 22:14:25 33° E
STARLINK-1320 3.5 22:10:26 10° WSW 22:13:30 57° NNW 22:16:36 10° NE
Meteor 1-16 Rocket 4.4 22:08:17 10° N 22:13:37 55° ENE 22:15:41 34° SE
STARLINK-1322 3.5 22:10:47 10° WSW 22:13:51 57° NNW 22:16:56 10° NE
STARLINK-1324 3.5 22:11:06 10° WSW 22:14:10 56° NNW 22:17:15 10° NE
STARLINK-1294 3.5 22:11:25 10° WSW 22:14:29 56° NNW 22:17:34 10° NE
STARLINK-1261 3.5 22:11:48 10° WSW 22:14:52 56° NNW 22:17:57 10° NE
STARLINK-1325 3.5 22:12:09 10° WSW 22:15:12 55° NNW 22:18:17 10° NE
STARLINK-1333 3.5 22:12:31 10° WSW 22:15:35 55° NNW 22:18:40 10° NE
Cosmos 968 Rocket 4.2 22:10:44 10° NNW 22:15:36 45° WSW 22:17:57 27° SSW
STARLINK-1334 3.5 22:12:48 10° WSW 22:15:52 55° NNW 22:18:56 10° NE
STARLINK-1326 3.6 22:13:08 10° WSW 22:16:12 54° NNW 22:19:16 10° NE
STARLINK-1323 3.6 22:13:30 10° WSW 22:16:35 54° NNW 22:19:39 10° NE
STARLINK-1365 3.6 22:12:39 10° WSW 22:16:45 81° NNW 22:20:51 10° NE
STARLINK-1349 3.6 22:13:48 10° WSW 22:16:52 54° NNW 22:19:56 10° NE
STARLINK-1187 4.2 22:13:59 10° WNW 22:16:37 31° WSW 22:16:37 31° WSW
STARLINK-1336 3.6 22:14:08 10° WSW 22:17:12 53° NNW 22:20:16 10° NE
STARLINK-1331 3.6 22:14:31 10° WSW 22:17:35 53° NNW 22:20:39 10° NE
STARLINK-1238 3.8 22:13:36 10° NW 22:17:44 69° NNE 22:19:12 38° ESE
STARLINK-1344 3.6 22:14:50 10° WSW 22:17:53 53° NNW 22:20:57 10° NE
STARLINK-1343 3.6 22:15:12 10° WSW 22:18:15 52° NNW 22:21:20 10° NE
STARLINK-1346 3.7 22:15:30 10° WSW 22:18:33 52° NNW 22:21:39 10° NE
STARLINK-1328 3.7 22:15:55 10° WSW 22:18:59 52° NNW 22:22:02 10° NE
S3M 3.9 22:12:53 10° N 22:19:09 84° E 22:22:10 33° SSE
STARLINK-1354 3.7 22:16:13 10° WSW 22:19:17 51° NNW 22:22:20 10° NE
STARLINK-1347 3.7 22:16:31 10° WSW 22:19:34 51° NNW 22:22:37 10° NE
SJ 16-02 4.1 22:19:22 10° NE 22:19:48 10° NE 22:20:12 10° ENE
Cosmos 2369 Rocket 4.0 22:14:50 10° WSW 22:19:50 31° NW 22:24:50 10° N
STARLINK-1357 3.7 22:16:57 10° WSW 22:19:59 51° NNW 22:23:03 10° NE
STARLINK-1335 3.7 22:17:14 10° WSW 22:20:16 50° NNW 22:23:20 10° NE
STARLINK-1327 3.7 22:17:35 10° WSW 22:20:38 50° NNW 22:23:40 10° NE
STARLINK-1340 3.7 22:17:54 10° WSW 22:20:56 50° NNW 22:23:59 10° NE
STARLINK-1356 3.8 22:18:16 10° WSW 22:21:19 49° NNW 22:24:22 10° NE
STARLINK-1345 3.8 22:18:35 10° WSW 22:21:38 49° NNW 22:24:41 10° NE
Meteor 2-8 Rocket 4.4 22:15:36 10° N 22:21:47 90° E 22:24:43 33° S
STARLINK-1355 3.8 22:18:56 10° WSW 22:21:59 49° NNW 22:25:02 10° NE
STARLINK-1321 3.8 22:19:17 10° WSW 22:22:19 49° NNW 22:25:22 10° NE
BREEZE-M DEB (TANK) 4.1 22:18:49 10° WSW 22:22:27 78° NNW 22:35:24 10° ENE
STARLINK-1358 3.8 22:19:40 10° WSW 22:22:42 48° NNW 22:25:45 10° NE
STARLINK-1201 3.7 22:18:35 10° NW 22:22:44 75° NNE 22:23:59 43° ESE
Cosmos 1867 4.0 22:17:34 10° NW 22:22:51 51° WSW 22:24:50 34° S
STARLINK-1332 3.8 22:19:58 10° WSW 22:23:00 48° NNW 22:26:03 10° NE
STARLINK-1348 3.8 22:20:18 10° WSW 22:23:20 48° NNW 22:26:23 10° NE
STARLINK-1330 3.9 22:20:38 10° WSW 22:23:40 47° NNW 22:26:42 10° NE
STARLINK-1363 3.9 22:20:58 10° WSW 22:24:00 47° NNW 22:27:02 10° NE
Cosmos 2227 Rocket 4.1 22:20:01 10° N 22:24:18 21° NE 22:28:23 11° E
STARLINK-1337 3.9 22:21:20 10° WSW 22:24:22 47° NNW 22:27:24 10° NE
STARLINK-1342 3.9 22:21:40 10° WSW 22:24:41 47° NNW 22:27:44 10° NE
STARLINK-1364 3.9 22:22:01 10° WSW 22:25:02 46° NNW 22:28:04 10° NE
STARLINK-1376 3.9 22:22:21 10° WSW 22:25:22 46° NNW 22:28:24 10° NE
STARLINK-1360 3.9 22:22:42 10° WSW 22:25:42 46° NNW 22:28:44 10° NE
STARLINK-1361 3.9 22:23:02 10° WSW 22:26:03 45° NNW 22:29:05 10° NE
STARLINK-1367 4.0 22:23:19 10° WSW 22:26:20 45° NNW 22:29:23 10° NE
STARLINK-1366 4.0 22:23:42 10° WSW 22:26:43 45° NNW 22:29:44 10° NE
STARLINK-1338 3.8 22:23:36 10° WSW 22:27:33 69° NNW 22:31:32 10° NE
STARLINK-1206 3.6 22:23:32 10° NW 22:27:41 80° NNE 22:28:45 49° ESE
Cosmos 1553 Rocket 4.3 22:23:23 10° NNW 22:29:30 61° W 22:32:46 28° SSW
STARLINK-1205 3.5 22:28:30 10° NW 22:32:40 86° NE 22:33:31 55° ESE
Cosmos 1536 Rocket 4.1 22:33:07 31° SW 22:34:54 54° WNW 22:39:13 10° N
Cosmos 2084 3.6 22:32:51 25° SW 22:35:23 78° NW 22:39:53 10° NE
STARLINK-1371 4.0 22:32:03 10° WSW 22:35:59 61° NNW 22:39:55 10° NE
Cosmos 1908 3.7 22:32:38 10° N 22:36:20 45° ENE 22:36:36 44° E
STARLINK-1218 3.5 22:33:29 10° WNW 22:37:39 87° SW 22:38:19 62° SE
Cosmos 1777 Rocket 4.1 22:32:53 10° NNW 22:38:08 67° ENE 22:39:51 41° SE
STARLINK-1341 4.1 22:36:24 10° WSW 22:40:20 57° NNW 22:44:17 10° NE
KORONAS-FOTON 3.9 22:42:07 56° E 22:42:09 56° E 22:45:58 10° NNE
STARLINK-1254 3.4 22:38:29 10° WNW 22:42:38 81° SW 22:43:06 68° SSE
Terra 3.1 22:41:36 24° SW 22:43:30 32° W 22:47:46 10° NNW
In-Cosmos 22 4.0 22:41:25 37° SSW 22:43:34 80° WNW 22:48:53 10° N
STARLINK-1374 4.2 22:40:43 10° WSW 22:44:37 54° NNW 22:48:33 10° NE
STARLINK-1231 3.4 22:43:28 10° WNW 22:47:36 75° SW 22:47:53 71° S
Meteor 2-5 Rocket 4.1 22:46:11 40° SE 22:47:38 49° E 22:53:04 10° NNE
Thor Agena Rocket 3.5 22:42:34 10° NNE 22:47:53 85° ESE 22:49:40 43° S
Cosmos 1726 2.6 22:45:14 10° NNW 22:48:52 51° W 22:49:12 49° WSW
Cosmos 1300 4.4 22:45:56 10° NNE 22:48:54 21° ENE 22:49:12 21° E
STARLINK-1339 4.3 22:45:03 10° WSW 22:48:57 51° NNW 22:52:51 10° NE
Cosmos 2266 Rocket 3.9 22:47:46 34° SSW 22:50:33 80° W 22:56:37 10° N
Cosmos 2292 Rocket 3.1 22:51:50 64° WNW 22:51:50 64° WNW 22:54:41 10° N
STARLINK-1232 3.5 22:48:28 10° WNW 22:52:37 69° SW 22:52:41 69° SSW
STARLINK-1377 4.5 22:49:25 10° WSW 22:53:18 48° NNW 22:57:11 10° NE
Cosmos 1674 2.5 22:53:26 84° SSE 22:53:31 87° ESE 22:57:20 10° N
CENTAUR R/B 4.1 22:47:00 10° NW 22:54:17 35° WSW 22:58:21 24° SSW
STARLINK-1208 3.6 22:53:28 10° WNW 22:57:28 63° SW 22:57:28 63° SW
STARLINK-1271 3.8 22:58:27 10° WNW 23:02:14 56° WSW 23:02:14 56° WSW
ATLAS 3B R/B 3.0 22:56:18 10° NW 23:02:54 53° WSW 23:05:21 37° S
SeaSat 1 2.4 23:01:51 10° NNE 23:06:46 63° ESE 23:07:35 54° SSE
BREEZE M DEB (TANK) 4.1 23:04:52 10° WNW 23:06:47 23° N 23:06:47 23° N
Cosmos 1340 Rocket 3.9 23:03:31 10° NNW 23:07:13 34° W 23:07:46 32° WSW
STARLINK-1154 4.0 23:03:25 10° WNW 23:07:00 49° WSW 23:07:00 49° WSW
Cosmos 1606 Rocket 3.4 23:03:34 10° N 23:07:56 83° W 23:08:26 69° S
Cosmos 2058 Rocket 3.5 23:04:55 10° N 23:09:18 51° ENE 23:09:53 47° ESE
STARLINK-1243 4.4 23:05:43 10° NW 23:09:45 48° NNE 23:11:26 30° E
Cosmos 1980 Rocket 4.3 23:10:05 11° E 23:10:27 11° E 23:11:56 10° E
STARLINK-1197 4.2 23:08:26 10° WNW 23:11:47 43° WSW 23:11:47 43° WSW
STARLINK-1236 4.3 23:10:40 10° NW 23:14:44 51° NNE 23:16:12 34° E
COSMOS 2455 4.3 23:09:20 10° WSW 23:14:49 36° NW 23:20:21 10° NNE
ALOS 2 2.6 23:14:35 59° ESE 23:15:09 67° ENE 23:19:32 10° N
STARLINK-1198 4.4 23:13:26 10° WNW 23:16:34 38° WSW 23:16:34 38° WSW
Cosmos 1626 2.4 23:20:51 58° ENE 23:20:51 58° ENE 23:24:08 10° NNE
RESURS DK-1 3.9 23:18:30 21° WSW 23:20:30 33° NW 23:24:17 10° N
ERBS 4.3 23:18:20 10° NNW 23:21:11 26° NNE 23:22:16 21° ENE
Cosmos 1953 4.2 23:19:29 10° NW 23:22:25 20° W 23:23:02 19° W
STARLINK-1269 4.1 23:20:37 10° NW 23:24:44 59° NNE 23:25:46 43° E
Nimbus 7 Rocket 4.4 23:20:19 10° NNE 23:26:25 89° WNW 23:28:30 44° SSW
Meteor 1-24 Rocket 3.5 23:27:06 54° S 23:28:22 82° E 23:33:57 10° NNE
Cosmos 1656 3.8 23:27:55 50° SSE 23:28:54 57° ESE 23:34:22 10° NNE
Lacrosse 4 Rocket 3.0 23:25:42 10° NNW 23:29:31 30° NE 23:31:03 23° E
STARLINK-1200 3.9 23:25:35 10° NW 23:29:42 63° NNE 23:30:32 50° E
Spot 4 4.4 23:29:10 41° SW 23:30:00 45° W 23:34:39 10° NNW
Cosmos 921 Rocket 3.2 23:29:32 55° WSW 23:30:11 63° WNW 23:34:33 10° NNE
Cosmos 220 Rocket 4.2 23:29:36 55° WSW 23:30:20 66° WNW 23:34:47 10° NNE
Cosmos 2228 3.5 23:26:31 10° NNW 23:30:36 47° W 23:30:53 46° WSW
Cosmos 2297 Rocket 2.3 23:25:30 10° NNW 23:31:09 69° ENE 23:32:59 43° SE
SL-4 R/B 4.1 23:33:28 13° NNW 23:33:28 13° NNW 23:33:45 10° NNW
CZ-4C R/B 2.2 23:31:35 48° SE 23:31:52 49° ESE 23:37:22 10° NE
Cosmos 1898 Rocket 4.4 23:28:09 10° N 23:33:13 42° ENE 23:35:13 30° ESE
SL-4 R/B 4.1 23:28:57 10° WNW 23:33:21 34° N 23:37:45 10° ENE
Meteor 2-14 Rocket 4.4 23:31:51 47° S 23:33:46 86° E 23:39:57 10° N
STARLINK-1192 3.8 23:30:35 10° NW 23:34:43 68° NNE 23:35:20 57° E
Cosmos 2219 3.1 23:29:23 10° NNW 23:35:05 88° ENE 23:36:34 52° SSE
Meteor 2-21 Rocket 4.4 23:36:06 47° S 23:37:58 79° E 23:44:11 10° N
STARLINK-1244 3.7 23:35:32 10° NW 23:39:41 73° NNE 23:40:06 66° ENE
Cosmos 192 4.2 23:43:01 64° S 23:43:45 82° ESE 23:48:44 10° NNE
ATLAS CENTAUR R/B 2.4 23:41:33 10° NNW 23:43:35 40° NNE 23:43:35 40° NNE
STARLINK-1138 3.6 23:40:30 10° NW 23:44:39 78° NNE 23:44:52 75° ENE
Cosmos 2082 4.4 23:40:07 10° NNW 23:45:33 46° ENE 23:48:10 28° ESE
Helios 1A 2.8 23:47:33 77° ESE 23:47:45 80° ENE 23:51:57 10° N
Okean 1-7 Rocket 3.8 23:47:20 54° WSW 23:47:56 60° W 23:52:28 10° N
STARLINK-1143 3.5 23:45:29 10° NW 23:49:39 84° NE 23:49:40 84° NE
Cosmos 1726 Rocket 4.5 23:47:04 10° NNW 23:51:01 35° W 23:51:18 35° W
Cosmos 1892 Rocket 4.3 23:51:40 39° WSW 23:52:19 42° WNW 23:56:29 10° N
EO 1 Delta rocket 3.7 23:47:59 10° N 23:53:08 81° E 23:53:51 64° S
STARLINK-1241 3.5 23:50:29 10° NW 23:54:27 82° WNW 23:54:27 82° WNW
Cosmos 1437 4.2 23:55:39 34° NNW 23:55:39 34° NNW 23:57:40 10° N
